Location: Huntsville
(34.7300°N, 86.5860°W)
Time: 00:02:39
(UTC-05:00)

Hubble Space Telescope - Visible Passes

Search period start: 26 October 2021 00:00
Search period end: 05 November 2021 00:00
Orbit: 535 x 539 km, 28.5° (Epoch: 25 October)

Date Brightness Start Highest point End Pass type
(mag) Time Alt. Az. Time Alt. Az. Time Alt. Az.
27 Oct 3.4 20:16:27 10° SW 20:17:10 13° SSW 20:17:10 13° SSW visible
28 Oct 3.1 18:26:41 10° S 18:28:02 11° SSE 18:29:23 10° SE visible
28 Oct 2.9 20:05:09 10° SW 20:06:47 19° SSW 20:06:47 19° SSW visible
29 Oct 2.4 19:53:52 10° SW 19:56:22 25° SSW 19:56:22 25° SSW visible
30 Oct 2.0 19:42:38 10° SW 19:45:55 30° S 19:45:55 30° S visible
31 Oct 1.8 19:31:27 10° WSW 19:35:09 33° S 19:35:27 32° SSE visible
01 Nov 1.8 19:20:16 10° WSW 19:24:00 34° S 19:24:59 29° SSE visible
02 Nov 1.9 19:09:07 10° WSW 19:12:51 34° S 19:14:31 24° SE visible
03 Nov 2.0 18:57:58 10° WSW 19:01:42 33° S 19:04:06 18° SE visible
03 Nov 4.0 20:39:16 10° WSW 20:39:24 11° WSW 20:39:24 11° WSW visible
04 Nov 2.1 18:46:51 10° WSW 18:50:33 32° S 18:53:42 13° SE visible
04 Nov 3.7 20:28:21 10° WSW 20:29:01 13° SW 20:29:01 13° SW visible
